Weather History for Air Force Academy, CO

Change the Weather History Date:

Saturday, April 19, 2014

  Actual Average Record
Temperature  
Mean Temperature 54 °F -  
Max Temperature 63 °F 52 °F 71 °F (1997)
Min Temperature 45 °F 30 °F 15 °F (2013)
Degree Days  
Heating Degree Days 10    
Growing Degree Days 4 (Base 50)    
Moisture  
Dew Point 33 °F    
Average Humidity 46    
Maximum Humidity 90    
Minimum Humidity 25    
Precipitation  
Precipitation 0.00 in - - ()
Sea Level Pressure  
Sea Level Pressure 29.96 in    
Wind  
Wind Speed 8 mph (NNE)    
Max Wind Speed 20 mph    
Max Gust Speed 24 mph    
Visibility 10 miles    
Events Rain    
Averages and records for this station are not official NWS values.
T = Trace of Precipitation, MM = Missing Value Source: NWS Daily Summary

Daily Weather History Graph

Daily Weather History Graph

Search for Another Location

Airport:

Trip Planner

Search our weather history database for the weather conditions in past years. The results will help you decide how hot, cold, wet, or windy it might be!

Date:

Astronomy

Apr. 19, 2014 Rise Set
Actual Time 6:16 AM MDT 7:40 PM MDT
Civil Twilight 5:49 AM MDT 8:08 PM MDT
Nautical Twilight 5:15 AM MDT 8:41 PM MDT
Astronomical Twilight 4:40 AM MDT 9:17 PM MDT
Moon No Moon Rise 9:39 AM MDT (4/19)
Length of Visible Light 14h 19m
Length of Day
13h 23m
Waning Gibbous, 78% of the Moon is Illuminated
Apr 19
Waning Gibbous
Apr 22
Last Quarter
Apr 29
New
May 6
First Quarter
May 14
Full

Hourly Weather History & Observations

Time (MDT) Temp. Windchill Dew Point Humidity Pressure Visibility Wind Dir Wind Speed Gust Speed Precip Events Conditions
12:58 AM 46.4 °F 42.9 °F 28.8 °F 50% 29.82 in 10.0 mi North 6.9 mph - N/A   Clear
1:58 AM 49.8 °F - 27.9 °F 43% 29.78 in 10.0 mi Variable 5.8 mph - N/A   Clear
2:58 AM 46.2 °F 42.2 °F 30.2 °F 54% 29.79 in 10.0 mi NNE 8.1 mph - N/A   Clear
3:58 AM 57.4 °F - 21.7 °F 25% 29.76 in 10.0 mi Variable 6.9 mph - N/A   Clear
4:58 AM 54.5 °F - 24.1 °F 31% 29.78 in 10.0 mi WNW 9.2 mph - N/A   Clear
5:58 AM 47.3 °F - 28.4 °F 48% 29.82 in 10.0 mi North 5.8 mph - N/A   Clear
6:58 AM 45.1 °F 42.8 °F 31.3 °F 58% 29.85 in 10.0 mi NNE 4.6 mph - N/A   Mostly Cloudy
7:58 AM 49.3 °F - 32.4 °F 52% 29.86 in 10.0 mi North 8.1 mph - N/A   Partly Cloudy
8:58 AM 55.8 °F - 29.7 °F 37% 29.88 in 10.0 mi North 18.4 mph 21.9 mph N/A   Clear
9:09 AM 55.4 °F - 26.6 °F 33% 30.08 in 10.0 mi NW 19.6 mph 24.2 mph N/A   Clear
9:14 AM 57.2 °F - 28.4 °F 33% 30.09 in 10.0 mi North 12.7 mph 24.2 mph N/A   Partly Cloudy
9:58 AM 59.0 °F - 27.1 °F 30% 29.91 in 10.0 mi NNW 8.1 mph - N/A   Scattered Clouds
10:58 AM 61.2 °F - 28.8 °F 29% 29.91 in 10.0 mi Variable 3.5 mph - N/A   Scattered Clouds
11:58 AM 60.4 °F - 28.8 °F 30% 29.93 in 10.0 mi Calm Calm - N/A   Scattered Clouds
12:48 PM 64.4 °F - 28.4 °F 26% 30.08 in 10.0 mi Variable 4.6 mph - N/A   Light Drizzle
12:58 PM 63.5 °F - 29.5 °F 28% 29.92 in 10.0 mi Calm Calm - N/A   Mostly Cloudy
1:53 PM 60.8 °F - 32.0 °F 34% 30.09 in 10.0 mi ENE 8.1 mph - N/A Rain Light Rain Showers
1:58 PM 60.8 °F - 30.7 °F 32% 29.93 in 10.0 mi ENE 9.2 mph - 0.00 in   Scattered Clouds
2:58 PM 60.8 °F - 29.7 °F 31% 29.93 in 10.0 mi ENE 6.9 mph - N/A   Scattered Clouds
3:58 PM 62.4 °F - 30.0 °F 30% 29.85 in 10.0 mi East 12.7 mph 18.4 mph N/A   Scattered Clouds
4:16 PM 62.6 °F - 32.0 °F 32% 30.05 in 10.0 mi ESE 11.5 mph - N/A Rain Light Rain
4:25 PM 62.6 °F - 32.0 °F 32% 30.05 in 10.0 mi East 11.5 mph - N/A   Scattered Clouds
4:45 PM 60.8 °F - 32.0 °F 34% 30.05 in 10.0 mi ENE 10.4 mph - N/A   Mostly Cloudy
4:58 PM 61.2 °F - 31.6 °F 33% 29.88 in 10.0 mi East 12.7 mph - 0.00 in   Mostly Cloudy
5:34 PM 59.0 °F - 33.8 °F 39% 30.08 in 10.0 mi East 8.1 mph - N/A Rain Light Rain
5:58 PM 55.6 °F - 39.9 °F 56% 29.95 in 10.0 mi East 15.0 mph 23.0 mph 0.00 in Rain Light Rain
5:59 PM 55.4 °F - 39.2 °F 54% 30.08 in 10.0 mi ENE 16.1 mph 23.0 mph N/A   Mostly Cloudy
6:24 PM 55.4 °F - 37.4 °F 51% 30.10 in 10.0 mi East 11.5 mph - N/A   Light Drizzle
6:39 PM 55.4 °F - 37.4 °F 51% 30.10 in 10.0 mi Variable 3.5 mph - N/A   Light Drizzle
6:48 PM 55.4 °F - 41.0 °F 58% 30.10 in 10.0 mi SW 6.9 mph - N/A   Mostly Cloudy
6:58 PM 54.1 °F - 39.7 °F 58% 29.98 in 10.0 mi South 8.1 mph - 0.00 in   Scattered Clouds
7:58 PM 48.2 °F - 41.4 °F 77% 29.98 in 10.0 mi North 6.9 mph - N/A   Clear
8:58 PM 46.8 °F - 39.7 °F 77% 30.00 in 10.0 mi NNW 5.8 mph - N/A   Clear
9:58 PM 46.8 °F - 42.8 °F 86% 30.00 in 10.0 mi NNW 5.8 mph - N/A   Mostly Cloudy
10:58 PM 47.1 °F - 43.0 °F 86% 30.00 in 10.0 mi NNW 4.6 mph - N/A   Overcast
11:58 PM 45.7 °F 42.7 °F 43.0 °F 90% 29.99 in 10.0 mi North 5.8 mph - N/A   Clear